C/2017 E3 ( PanSTARRS )

Japanese version
Home page
Updated on May 20, 2017

---------------------------------------------------------------------

* Profile

Discovery Date March 7, 2017
Magnitude 19.2 mag
Discoverer Pan-STARRS 1 telescope (Haleakala)

* Pictures

* Orbital Elements

Epoch 2017 June 16.0 TT = JDT 2457920.5
T 2017 May 31.38172 TT                                  MPCW
q   5.9147138            (2000.0)            P               Q
z  -0.0007829      Peri.  333.64425     -0.77469433     -0.14245377
 +/-0.0000454      Node   220.76360     -0.26798394     -0.80850864
e   1.0046307      Incl.   70.65648     -0.57274192     +0.57098223
From 112 observations 2017 Mar. 7-May 5, mean residual 0".5.

* Magnitudes Graph

        m1 = 6.0 + 5 log d + 10.0 log r

---------------------------------------------------------------------

The orbital elements are published on M.P.E.C. 2017-J52.
The magnitudes graphs are made with Comet for Windows.

---------------------------------------------------------------------

Copyright(C) Seiichi Yoshida (comet@aerith.net). All rights reserved.